TimeCST,TemperatureF,Dew PointF,Humidity,Sea Level PressureIn,VisibilityMPH,Wind Direction,Wind SpeedMPH,Gust SpeedMPH,PrecipitationIn,Events,Conditions,WindDirDegrees,DateUTC
12:55 AM,37.9,37.0,97,29.96,4.0,NNW,11.5,-,N/A,,Overcast,330,2012-12-08 06:55:00
1:20 AM,37.4,37.4,100,29.92,2.5,NNW,6.9,-,N/A,,Overcast,340,2012-12-08 07:20:00
1:55 AM,37.9,37.0,97,29.95,2.5,North,5.8,-,N/A,,Overcast,350,2012-12-08 07:55:00
2:31 AM,37.4,37.4,100,29.93,1.8,North,6.9,-,N/A,,Overcast,360,2012-12-08 08:31:00
2:39 AM,37.4,37.4,100,29.94,2.0,NNW,5.8,-,N/A,,Overcast,330,2012-12-08 08:39:00
2:55 AM,37.9,37.0,97,29.97,3.0,NNW,6.9,-,N/A,,Overcast,330,2012-12-08 08:55:00
3:18 AM,37.4,37.4,100,29.94,3.0,NNW,5.8,-,N/A,,Overcast,330,2012-12-08 09:18:00
3:55 AM,37.9,37.0,97,29.97,4.0,Calm,Calm,-,N/A,,Overcast,0,2012-12-08 09:55:00
4:55 AM,36.0,35.1,97,29.99,3.0,NNW,3.5,-,N/A,,Overcast,340,2012-12-08 10:55:00
5:28 AM,37.4,35.6,93,29.96,3.0,North,4.6,-,N/A,,Overcast,350,2012-12-08 11:28:00
5:55 AM,37.0,36.0,96,30.00,3.0,North,6.9,-,N/A,,Overcast,10,2012-12-08 11:55:00
6:26 AM,35.6,35.6,100,29.98,5.0,North,8.1,-,N/A,,Overcast,10,2012-12-08 12:26:00
6:55 AM,36.0,34.0,93,30.02,5.0,North,6.9,-,N/A,,Overcast,360,2012-12-08 12:55:00
7:55 AM,35.1,32.0,89,30.03,4.0,North,11.5,-,N/A,,Overcast,360,2012-12-08 13:55:00
8:55 AM,35.1,32.0,89,30.04,4.0,NNE,8.1,-,N/A,,Overcast,20,2012-12-08 14:55:00
9:09 AM,35.6,32.0,87,30.01,4.0,NNE,6.9,-,N/A,,Overcast,20,2012-12-08 15:09:00
9:41 AM,35.6,32.0,87,30.03,6.0,ENE,9.2,-,N/A,,Overcast,60,2012-12-08 15:41:00
9:55 AM,36.0,32.0,86,30.06,6.0,NNE,6.9,-,N/A,,Overcast,20,2012-12-08 15:55:00
10:55 AM,36.0,30.9,82,30.06,7.0,ENE,4.6,-,N/A,,Mostly Cloudy,60,2012-12-08 16:55:00
11:10 AM,39.2,32.0,75,30.02,9.0,East,8.1,-,N/A,,Partly Cloudy,90,2012-12-08 17:10:00
11:55 AM,37.9,30.9,76,30.03,10.0,ENE,10.4,-,N/A,,Scattered Clouds,60,2012-12-08 17:55:00
12:55 PM,39.9,32.0,73,30.00,10.0,East,5.8,-,N/A,,Mostly Cloudy,80,2012-12-08 18:55:00
1:46 PM,39.2,32.0,75,29.96,10.0,ENE,8.1,-,N/A,,Mostly Cloudy,70,2012-12-08 19:46:00
1:55 PM,39.9,32.0,73,29.99,10.0,ENE,9.2,-,N/A,,Mostly Cloudy,70,2012-12-08 19:55:00
2:10 PM,39.2,33.8,81,29.96,9.0,ENE,8.1,-,N/A,,Mostly Cloudy,70,2012-12-08 20:10:00
2:25 PM,39.2,33.8,81,29.96,9.0,East,8.1,-,N/A,,Mostly Cloudy,80,2012-12-08 20:25:00
2:55 PM,39.9,32.0,73,30.00,9.0,East,8.1,-,N/A,,Mostly Cloudy,90,2012-12-08 20:55:00
3:55 PM,39.0,32.0,76,30.01,8.0,East,8.1,-,N/A,,Overcast,100,2012-12-08 21:55:00
4:55 PM,39.0,33.1,79,30.01,9.0,ESE,8.1,-,N/A,,Overcast,110,2012-12-08 22:55:00
5:55 PM,37.9,33.1,83,30.00,10.0,East,9.2,-,N/A,,Overcast,80,2012-12-08 23:55:00
6:55 PM,37.0,33.1,86,30.00,8.0,East,9.2,-,N/A,,Overcast,90,2012-12-09 00:55:00
7:55 PM,37.0,34.0,89,30.00,7.0,East,6.9,-,N/A,,Overcast,90,2012-12-09 01:55:00
8:55 PM,37.9,34.0,86,29.98,8.0,ESE,13.8,-,N/A,,Overcast,120,2012-12-09 02:55:00
9:55 PM,37.9,34.0,86,29.99,7.0,ESE,13.8,-,N/A,,Overcast,120,2012-12-09 03:55:00
10:55 PM,37.9,35.1,89,29.98,5.0,ESE,11.5,-,N/A,,Overcast,120,2012-12-09 04:55:00
11:55 PM,37.9,36.0,93,29.96,4.0,East,8.1,-,N/A,,Overcast,100,2012-12-09 05:55:00